Flag for Canada Weather past 2 weeks in Fort Simpson, Northwest Territories, Canada

Now
-6 °F

Passing clouds.


Feels Like: -6 °F
Forecast: -12 / -6 °F
Wind: No wind

Location: Fort Simpson

Current Time: Dec 17, 2014 at 9:07:21 PM

Latest Report: Dec 17, 2014 at 8:00 PM


Visibility: 15 mi

Pressure: 29.74 "Hg

Humidity: 77%

Dew point: -11 °F

Location of Fort SimpsonLocation

Historic Weather in Fort Simpson — Graph

°F

Fort Simpson temperature yesterday

Maximum temperature yesterday: 3 °F (at 1:00 AM)
Minimum temperature yesterday: -11 °F (at 11:00 AM)
Average temperature yesterday: -5 °F

Past Weeks' High & Low Weather Summary

 TemperatureHumidityPressure
High5 °F (Dec 15, 10:00 PM)85% (Dec 12, 5:00 PM)30.39 "Hg (Dec 12, 5:00 PM)
Low-17 °F (Dec 7, 6:00 PM)64% (Dec 6, 6:00 PM)29.47 "Hg (Dec 9, 1:00 PM)
Average-4 °F75%29.95 "Hg
* Reported Dec 2 7:00 PM — Dec 17 7:00 PM, Fort Simpson, Weather by CustomWeather, © 2014

Note: Actual official high and low records may vary slightly from our data, if they occured in-between our weather recording intervals... More about our weather records

Advertising

Fort Simpson weather history for previous 24 hours

 ConditionsComfort  
Time TempWeatherWind HumidityBarometerVisibility
7:00 PM
Dec 17
-4 °FPartly cloudy.No wind77%29.74 "Hg15 mi
6:00 PM-4 °FPassing clouds.No wind71%29.73 "Hg15 mi
5:00 PM-6 °FPartly cloudy.No wind70%29.74 "Hg15 mi
4:00 PM-9 °FPassing clouds.No wind77%29.74 "Hg15 mi
3:00 PM-8 °FPassing clouds.2 mph70%29.75 "Hg15 mi
2:00 PM-8 °FPassing clouds.2 mph70%29.74 "Hg15 mi
1:00 PM-11 °FPassing clouds.No wind76%29.74 "Hg15 mi
12:00 PM-11 °FPassing clouds.No wind70%29.74 "Hg15 mi
11:00 AM-13 °FPassing clouds.No wind69%29.75 "Hg15 mi
10:00 AM-13 °FPassing clouds.No wind69%29.75 "Hg15 mi
9:00 AM-13 °FPassing clouds.No wind69%29.75 "Hg15 mi
8:00 AM-13 °FClear.No wind76%29.75 "Hg15 mi
7:00 AM-11 °FClear.2 mph70%29.74 "Hg15 mi
6:00 AM-13 °FClear.No wind76%29.74 "Hg15 mi
5:00 AM-13 °FClear.2 mph76%29.74 "Hg15 mi
4:00 AM-11 °FClear.No wind70%29.73 "Hg15 mi
3:00 AM-11 °FClear.2 mph76%29.72 "Hg15 mi
2:00 AM-11 °FClear.2 mph70%29.72 "Hg15 mi
1:00 AM-11 °FClear.No wind76%29.72 "Hg15 mi
12:00 AM-11 °FClear.No wind76%29.73 "Hg15 mi
11:00 PM
Dec 16
-9 °FClear.No wind77%29.73 "Hg15 mi
10:00 PM-8 °FClear.2 mph77%29.71 "Hg15 mi
9:00 PM-8 °FPassing clouds.No wind77%29.72 "Hg15 mi
Weather by CustomWeather, © 2014

See weather overviewHow to use our weather pages